QPF
0.01 0.01 0.01 0.00 0.00 0.00 0.00 0.00 0.00 0.01 0.02 0.02 0.02 0.04 0.03 0.03 0.02 0.01 0.00 0.00 0.00 0.01 0.01 0.01 0.01 0.01 0.01 0.01 0.01 0.02 0.02 0.02 0.02 0.02 0.01 0.01 0.03 0.04 0.04 0.04 0.03 0.03 0.02 0.02
0.01 0.00 0.00 0.00 0.00 0.00 0.00 0.00 0.00 0.01 0.02 0.02 0.03 0.05 0.03 0.03 0.02 0.01 0.00 0.00 0.00 0.00 0.00 0.00 0.00 0.00 0.00 0.00 0.00 0.01 0.02 0.02 0.03 0.03 0.02 0.01 0.02 0.03 0.04 0.03 0.02 0.01 0.02 0.03
0.01 0.00 0.00 0.00 0.00 0.00 0.00 0.00 0.01 0.02 0.02 0.02 0.02 0.04 0.03 0.03 0.02 0.01 0.00 0.00 0.00 0.00 0.00 0.00 0.00 0.00 0.00 0.00 0.00 0.00 0.01 0.02 0.03 0.03 0.03 0.03 0.03 0.03 0.03 0.02 0.01 0.01 0.01 0.01
0.01 0.00 0.00 0.00 0.00 0.00 0.00 0.00 0.00 0.02 0.03 0.03 0.03 0.04 0.03 0.02 0.02 0.01 0.00 0.00 0.00 0.00 0.00 0.00 0.00 0.00 0.00 0.00 0.00 0.00 0.00 0.01 0.02 0.04 0.03 0.02 0.03 0.03 0.02 0.01 0.01 0.01 0.01 0.00
0.02 0.01 0.01 0.01 0.01 0.00 0.01 0.00 0.00 0.01 0.03 0.04 0.03 0.03 0.03 0.02 0.02 0.01 0.00 0.00 0.00 0.00 0.00 0.00 0.00 0.00 0.00 0.00 0.00 0.00 0.00 0.00 0.01 0.03 0.04 0.04 0.03 0.02 0.01 0.01 0.01 0.01 0.00 0.00
0.01 0.01 0.02 0.02 0.01 0.01 0.02 0.01 0.01 0.02 0.04 0.04 0.03 0.03 0.03 0.02 0.01 0.01 0.00 0.00 0.00 0.00 0.00 0.00 0.00 0.00 0.00 0.00 0.00 0.00 0.00 0.00 0.00 0.01 0.03 0.05 0.05 0.03 0.01 0.01 0.01 0.01 0.00 0.00
0.01 0.01 0.01 0.02 0.02 0.02 0.03 0.03 0.04 0.05 0.05 0.03 0.02 0.02 0.02 0.01 0.01 0.00 0.00 0.00 0.00 0.00 0.00 0.00 0.00 0.00 0.00 0.00 0.00 0.00 0.00 0.00 0.00 0.00 0.01 0.02 0.04 0.05 0.04 0.02 0.01 0.01 0.01 0.01
0.02 0.02 0.01 0.02 0.03 0.03 0.03 0.02 0.04 0.04 0.04 0.03 0.01 0.02 0.01 0.00 0.00 0.00 0.00 0.00 0.00 0.00 0.00 0.00 0.00 0.00 0.00 0.00 0.00 0.00 0.00 0.00 0.00 0.00 0.00 0.00 0.01 0.03 0.05 0.05 0.03 0.02 0.01 0.01
0.02 0.02 0.01 0.01 0.01 0.02 0.03 0.03 0.03 0.03 0.02 0.02 0.01 0.01 0.01 0.00 0.00 0.00 0.00 0.00 0.00 0.00 0.00 0.00 0.00 0.00 0.00 0.00 0.00 0.00 0.00 0.00 0.01 0.01 0.01 0.00 0.00 0.01 0.03 0.05 0.06 0.05 0.02 0.01
0.02 0.02 0.01 0.01 0.02 0.02 0.02 0.03 0.03 0.04 0.04 0.03 0.01 0.01 0.01 0.01 0.00 0.00 0.00 0.00 0.00 0.00 0.00 0.00 0.00 0.01 0.01 0.01 0.01 0.01 0.01 0.00 0.00 0.01 0.01 0.01 0.01 0.01 0.01 0.03 0.04 0.05 0.05 0.03
0.02 0.03 0.02 0.01 0.02 0.02 0.02 0.03 0.03 0.04 0.03 0.03 0.03 0.02 0.01 0.00 0.00 0.00 0.00 0.00 0.00 0.00 0.00 0.00 0.00 0.00 0.01 0.01 0.01 0.01 0.01 0.00 0.01 0.00 0.00 0.01 0.01 0.01 0.01 0.01 0.01 0.03 0.04 0.04
0.01 0.03 0.02 0.01 0.01 0.01 0.02 0.02 0.02 0.04 0.03 0.02 0.02 0.02 0.00 0.00 0.00 0.00 0.00 0.00 0.00 0.00 0.00 0.00 0.00 0.00 0.00 0.00 0.01 0.01 0.01 0.01 0.01 0.01 0.01 0.00 0.00 0.00 0.01 0.01 0.01 0.01 0.02 0.03
0.03 0.03 0.04 0.03 0.02 0.02 0.02 0.02 0.02 0.03 0.04 0.03 0.02 0.02 0.01 0.00 0.00 0.00 0.00 0.00 0.00 0.00 0.00 0.00 0.00 0.00 0.00 0.00 0.00 0.00 0.01 0.01 0.00 0.00 0.00 0.00 0.01 0.01 0.01 0.01 0.01 0.01 0.02 0.02
0.02 0.03 0.03 0.03 0.03 0.02 0.03 0.02 0.02 0.04 0.04 0.02 0.01 0.01 0.01 0.00 0.00 0.00 0.00 0.00 0.00 0.00 0.00 0.00 0.00 0.00 0.00 0.00 0.00 0.00 0.00 0.00 0.00 0.00 0.00 0.00 0.00 0.00 0.01 0.01 0.01 0.01 0.02 0.02
0.02 0.02 0.01 0.01 0.01 0.01 0.01 0.01 0.02 0.03 0.02 0.01 0.01 0.01 0.01 0.01 0.01 0.00 0.00 0.00 0.00 0.00 0.00 0.00 0.00 0.00 0.00 0.00 0.00 0.01 0.00 0.01 0.01 0.00 0.00 0.00 0.00 0.00 0.01 0.01 0.01 0.01 0.02 0.02
0.02 0.02 0.01 0.01 0.01 0.01 0.01 0.01 0.01 0.01 0.01 0.01 0.01 0.01 0.01 0.01 0.00 0.00 0.00 0.00 0.00 0.00 0.00 0.00 0.00 0.00 0.00 0.00 0.01 0.01 0.01 0.01 0.01 0.01 0.01 0.01 0.01 0.01 0.01 0.01 0.02 0.02 0.02 0.02
0.02 0.02 0.03 0.02 0.01 0.02 0.03 0.01 0.01 0.02 0.01 0.01 0.02 0.02 0.01 0.01 0.00 0.00 0.00 0.00 0.00 0.00 0.00 0.00 0.00 0.00 0.01 0.01 0.01 0.02 0.01 0.01 0.02 0.02 0.02 0.02 0.02 0.02 0.02 0.02 0.02 0.02 0.02 0.02
0.02 0.02 0.04 0.03 0.03 0.03 0.02 0.01 0.01 0.02 0.01 0.01 0.01 0.01 0.01 0.01 0.01 0.01 0.01 0.01 0.01 0.01 0.00 0.00 0.00 0.01 0.01 0.01 0.02 0.02 0.02 0.02 0.03 0.03 0.03 0.02 0.03 0.03 0.03 0.03 0.03 0.03 0.03 0.02
0.01 0.03 0.04 0.04 0.04 0.02 0.01 0.01 0.02 0.02 0.01 0.01 0.01 0.01 0.01 0.01 0.01 0.01 0.01 0.01 0.01 0.01 0.01 0.01 0.01 0.01 0.02 0.02 0.02 0.03 0.03 0.03 0.04 0.04 0.03 0.03 0.03 0.04 0.04 0.03 0.03 0.03 0.03 0.02
0.02 0.03 0.05 0.04 0.04 0.02 0.01 0.01 0.01 0.02 0.02 0.01 0.01 0.01 0.01 0.01 0.01 0.01 0.01 0.01 0.01 0.01 0.01 0.01 0.01 0.01 0.02 0.02 0.03 0.03 0.04 0.04 0.04 0.04 0.05 0.04 0.04 0.04 0.04 0.04 0.03 0.03 0.03 0.03
0.03 0.04 0.04 0.03 0.03 0.02 0.01 0.01 0.01 0.02 0.03 0.01 0.01 0.01 0.01 0.02 0.02 0.01 0.01 0.01 0.01 0.01 0.01 0.01 0.01 0.01 0.02 0.02 0.03 0.03 0.04 0.04 0.04 0.04 0.05 0.04 0.04 0.04 0.04 0.03 0.03 0.04 0.03 0.03
0.02 0.03 0.03 0.03 0.04 0.02 0.01 0.01 0.01 0.02 0.02 0.02 0.02 0.01 0.01 0.01 0.01 0.01 0.01 0.01 0.01 0.01 0.01 0.01 0.01 0.01 0.01 0.02 0.02 0.03 0.03 0.04 0.03 0.03 0.03 0.03 0.03 0.03 0.03 0.03 0.04 0.03 0.02 0.02
0.01 0.02 0.03 0.03 0.03 0.02 0.01 0.01 0.01 0.01 0.01 0.02 0.01 0.01 0.01 0.01 0.01 0.01 0.01 0.01 0.01 0.01 0.01 0.01 0.01 0.01 0.01 0.01 0.02 0.02 0.03 0.03 0.02 0.02 0.03 0.03 0.03 0.02 0.02 0.02 0.03 0.02 0.02 0.02
0.01 0.01 0.01 0.02 0.02 0.02 0.01 0.01 0.01 0.01 0.01 0.02 0.02 0.01 0.01 0.01 0.01 0.01 0.01 0.01 0.01 0.01 0.01 0.01 0.01 0.01 0.01 0.01 0.01 0.02 0.02 0.02 0.02 0.02 0.03 0.03 0.02 0.02 0.02 0.02 0.02 0.02 0.02 0.01
0.01 0.01 0.01 0.01 0.01 0.01 0.01 0.00 0.01 0.01 0.01 0.01 0.01 0.01 0.01 0.01 0.01 0.01 0.01 0.01 0.01 0.00 0.00 0.00 0.01 0.01 0.00 0.00 0.01 0.01 0.01 0.02 0.02 0.02 0.02 0.02 0.02 0.02 0.02 0.02 0.02 0.02 0.02 0.01
0.01 0.01 0.01 0.01 0.01 0.01 0.01 0.01 0.01 0.01 0.01 0.01 0.01 0.01 0.01 0.01 0.01 0.01 0.01 0.01 0.01 0.01 0.00 0.00 0.01 0.01 0.00 0.00 0.01 0.01 0.01 0.01 0.02 0.02 0.02 0.02 0.02 0.02 0.02 0.02 0.01 0.01 0.01 0.01
MSLP
1015.06 1015.09 1015.13 1015.22 1015.36 1015.54 1015.74 1015.93 1016.06 1016.08 1015.96 1015.69 1015.27 1014.75 1014.19 1013.66 1013.23 1012.97 1012.89 1013.00 1013.28 1013.66 1014.08 1014.48 1014.81 1015.02 1015.13 1015.14 1015.08 1015.01 1014.94 1014.92 1014.95 1015.05 1015.19 1015.36 1015.53 1015.70 1015.86 1016.00 1016.13 1016.27 1016.43 1016.63
1015.44 1015.44 1015.49 1015.59 1015.77 1016.01 1016.29 1016.55 1016.73 1016.78 1016.63 1016.29 1015.75 1015.07 1014.34 1013.64 1013.08 1012.71 1012.59 1012.71 1013.03 1013.50 1014.02 1014.52 1014.94 1015.23 1015.38 1015.41 1015.37 1015.29 1015.23 1015.21 1015.26 1015.36 1015.51 1015.67 1015.83 1015.97 1016.08 1016.17 1016.26 1016.36 1016.50 1016.69
1015.73 1015.73 1015.79 1015.94 1016.20 1016.54 1016.93 1017.29 1017.55 1017.63 1017.47 1017.04 1016.38 1015.53 1014.61 1013.72 1012.98 1012.48 1012.28 1012.37 1012.71 1013.22 1013.83 1014.41 1014.90 1015.25 1015.45 1015.51 1015.49 1015.43 1015.38 1015.38 1015.45 1015.57 1015.73 1015.91 1016.07 1016.19 1016.28 1016.33 1016.39 1016.47 1016.59 1016.78
1015.97 1015.98 1016.08 1016.30 1016.65 1017.11 1017.62 1018.10 1018.44 1018.56 1018.38 1017.88 1017.08 1016.06 1014.93 1013.84 1012.92 1012.28 1011.97 1012.00 1012.33 1012.87 1013.53 1014.17 1014.72 1015.12 1015.36 1015.46 1015.45 1015.41 1015.38 1015.41 1015.50 1015.65 1015.85 1016.04 1016.21 1016.33 1016.41 1016.45 1016.49 1016.55 1016.67 1016.85
1016.23 1016.25 1016.39 1016.68 1017.13 1017.70 1018.32 1018.90 1019.31 1019.45 1019.25 1018.67 1017.74 1016.56 1015.25 1013.97 1012.87 1012.08 1011.67 1011.63 1011.93 1012.48 1013.16 1013.85 1014.44 1014.88 1015.16 1015.28 1015.30 1015.28 1015.27 1015.32 1015.44 1015.62 1015.83 1016.05 1016.23 1016.37 1016.45 1016.49 1016.53 1016.59 1016.70 1016.89
1016.56 1016.60 1016.77 1017.11 1017.62 1018.27 1018.97 1019.61 1020.06 1020.21 1019.96 1019.30 1018.26 1016.94 1015.48 1014.04 1012.81 1011.90 1011.39 1011.29 1011.56 1012.10 1012.78 1013.49 1014.11 1014.58 1014.88 1015.02 1015.06 1015.05 1015.07 1015.13 1015.27 1015.47 1015.71 1015.94 1016.14 1016.29 1016.38 1016.43 1016.47 1016.54 1016.66 1016.86
1017.03 1017.07 1017.25 1017.60 1018.13 1018.80 1019.52 1020.17 1020.61 1020.72 1020.42 1019.69 1018.57 1017.15 1015.58 1014.04 1012.72 1011.73 1011.15 1011.01 1011.24 1011.76 1012.44 1013.15 1013.77 1014.25 1014.56 1014.71 1014.77 1014.77 1014.80 1014.88 1015.03 1015.24 1015.49 1015.73 1015.95 1016.10 1016.21 1016.27 1016.33 1016.41 1016.55 1016.76
1017.66 1017.67 1017.82 1018.15 1018.64 1019.27 1019.94 1020.53 1020.91 1020.96 1020.60 1019.81 1018.62 1017.16 1015.55 1013.98 1012.62 1011.60 1010.99 1010.82 1011.02 1011.51 1012.16 1012.84 1013.45 1013.91 1014.21 1014.37 1014.44 1014.45 1014.49 1014.58 1014.74 1014.96 1015.21 1015.46 1015.68 1015.85 1015.96 1016.04 1016.12 1016.22 1016.38 1016.60
1018.44 1018.41 1018.50 1018.75 1019.15 1019.67 1020.23 1020.70 1020.98 1020.93 1020.50 1019.67 1018.47 1017.00 1015.42 1013.88 1012.55 1011.55 1010.95 1010.76 1010.93 1011.37 1011.96 1012.59 1013.14 1013.57 1013.85 1014.01 1014.07 1014.10 1014.15 1014.25 1014.43 1014.65 1014.91 1015.17 1015.39 1015.57 1015.69 1015.79 1015.88 1016.00 1016.17 1016.41
1019.33 1019.25 1019.26 1019.39 1019.66 1020.03 1020.42 1020.74 1020.87 1020.72 1020.22 1019.36 1018.18 1016.77 1015.26 1013.81 1012.56 1011.61 1011.04 1010.84 1010.96 1011.33 1011.85 1012.38 1012.86 1013.23 1013.48 1013.61 1013.67 1013.72 1013.79 1013.92 1014.11 1014.36 1014.62 1014.89 1015.12 1015.30 1015.44 1015.55 1015.65 1015.79 1015.98 1016.23
1020.29 1020.16 1020.08 1020.10 1020.21 1020.40 1020.60 1020.73 1020.69 1020.42 1019.85 1018.99 1017.86 1016.54 1015.16 1013.84 1012.70 1011.83 1011.29 1011.07 1011.14 1011.41 1011.81 1012.23 1012.60 1012.89 1013.08 1013.19 1013.26 1013.33 1013.43 1013.59 1013.82 1014.09 1014.37 1014.65 1014.89 1015.09 1015.24 1015.36 1015.48 1015.63 1015.83 1016.08
1021.29 1021.12 1020.97 1020.87 1020.83 1020.83 1020.83 1020.76 1020.56 1020.17 1019.54 1018.68 1017.61 1016.41 1015.17 1013.99 1012.98 1012.20 1011.68 1011.44 1011.42 1011.58 1011.83 1012.11 1012.36 1012.55 1012.68 1012.77 1012.84 1012.94 1013.08 1013.29 1013.56 1013.86 1014.18 1014.47 1014.73 1014.93 1015.09 1015.23 1015.37 1015.52 1015.73 1015.99
1022.31 1022.12 1021.92 1021.73 1021.55 1021.37 1021.18 1020.93 1020.56 1020.05 1019.37 1018.52 1017.52 1016.44 1015.33 1014.30 1013.39 1012.68 1012.18 1011.89 1011.78 1011.80 1011.90 1012.03 1012.14 1012.23 1012.30 1012.36 1012.45 1012.58 1012.77 1013.03 1013.34 1013.69 1014.03 1014.34 1014.61 1014.82 1015.00 1015.14 1015.29 1015.46 1015.67 1015.93
1023.33 1023.16 1022.94 1022.68 1022.38 1022.06 1021.70 1021.27 1020.76 1020.13 1019.40 1018.54 1017.61 1016.62 1015.64 1014.71 1013.90 1013.24 1012.73 1012.38 1012.16 1012.04 1011.99 1011.97 1011.96 1011.95 1011.97 1012.01 1012.11 1012.28 1012.52 1012.82 1013.17 1013.54 1013.90 1014.23 1014.50 1014.73 1014.90 1015.06 1015.22 1015.40 1015.62 1015.89
1024.36 1024.23 1024.01 1023.70 1023.33 1022.88 1022.37 1021.79 1021.14 1020.42 1019.62 1018.76 1017.86 1016.94 1016.04 1015.20 1014.45 1013.81 1013.27 1012.85 1012.53 1012.28 1012.09 1011.93 1011.82 1011.74 1011.71 1011.75 1011.86 1012.06 1012.33 1012.66 1013.04 1013.42 1013.78 1014.10 1014.37 1014.60 1014.78 1014.95 1015.12 1015.32 1015.55 1015.83
1025.38 1025.30 1025.09 1024.76 1024.32 1023.78 1023.15 1022.45 1021.68 1020.86 1020.00 1019.12 1018.23 1017.35 1016.50 1015.70 1014.98 1014.33 1013.76 1013.27 1012.85 1012.49 1012.18 1011.93 1011.74 1011.61 1011.56 1011.59 1011.72 1011.93 1012.21 1012.56 1012.93 1013.29 1013.64 1013.94 1014.20 1014.41 1014.59 1014.77 1014.96 1015.18 1015.45 1015.75
1026.36 1026.31 1026.12 1025.77 1025.28 1024.66 1023.93 1023.13 1022.27 1021.37 1020.46 1019.54 1018.65 1017.78 1016.95 1016.17 1015.44 1014.77 1014.16 1013.61 1013.11 1012.67 1012.29 1011.98 1011.74 1011.59 1011.53 1011.56 1011.69 1011.90 1012.17 1012.49 1012.83 1013.16 1013.46 1013.73 1013.96 1014.16 1014.34 1014.53 1014.75 1015.00 1015.30 1015.64
1027.21 1027.18 1026.97 1026.60 1026.06 1025.38 1024.60 1023.72 1022.79 1021.85 1020.89 1019.96 1019.05 1018.18 1017.35 1016.57 1015.83 1015.13 1014.48 1013.88 1013.33 1012.84 1012.42 1012.09 1011.83 1011.68 1011.61 1011.65 1011.76 1011.95 1012.19 1012.46 1012.74 1013.01 1013.25 1013.47 1013.66 1013.85 1014.04 1014.25 1014.50 1014.79 1015.13 1015.51
1027.85 1027.79 1027.55 1027.14 1026.56 1025.84 1025.01 1024.11 1023.16 1022.19 1021.23 1020.29 1019.39 1018.52 1017.69 1016.89 1016.14 1015.42 1014.74 1014.11 1013.53 1013.03 1012.60 1012.26 1012.01 1011.87 1011.81 1011.83 1011.93 1012.08 1012.26 1012.46 1012.66 1012.85 1013.02 1013.19 1013.35 1013.52 1013.72 1013.96 1014.25 1014.59 1014.98 1015.40
1028.19 1028.06 1027.76 1027.29 1026.68 1025.94 1025.11 1024.21 1023.27 1022.34 1021.41 1020.50 1019.63 1018.78 1017.96 1017.16 1016.40 1015.66 1014.97 1014.33 1013.75 1013.25 1012.83 1012.51 1012.28 1012.15 1012.09 1012.10 1012.16 1012.25 1012.36 1012.48 1012.58 1012.69 1012.79 1012.90 1013.04 1013.21 1013.43 1013.71 1014.04 1014.43 1014.86 1015.32
1028.16 1027.93 1027.55 1027.03 1026.38 1025.65 1024.84 1023.99 1023.12 1022.26 1021.40 1020.57 1019.75 1018.95 1018.16 1017.39 1016.63 1015.90 1015.21 1014.58 1014.01 1013.52 1013.13 1012.83 1012.62 1012.49 1012.42 1012.41 1012.42 1012.44 1012.46 1012.49 1012.50 1012.53 1012.57 1012.64 1012.76 1012.93 1013.18 1013.50 1013.88 1014.32 1014.79 1015.28
1027.75 1027.40 1026.93 1026.36 1025.70 1024.99 1024.24 1023.48 1022.72 1021.97 1021.23 1020.50 1019.77 1019.04 1018.31 1017.58 1016.85 1016.15 1015.47 1014.86 1014.31 1013.85 1013.48 1013.20 1013.00 1012.86 1012.77 1012.71 1012.66 1012.61 1012.54 1012.47 1012.41 1012.36 1012.34 1012.39 1012.50 1012.70 1012.98 1013.34 1013.77 1014.24 1014.75 1015.25
1027.02 1026.55 1026.00 1025.39 1024.74 1024.07 1023.41 1022.76 1022.13 1021.52 1020.92 1020.31 1019.70 1019.07 1018.41 1017.74 1017.06 1016.39 1015.75 1015.16 1014.64 1014.20 1013.85 1013.57 1013.37 1013.22 1013.09 1012.98 1012.86 1012.72 1012.57 1012.41 1012.27 1012.16 1012.11 1012.14 1012.25 1012.47 1012.79 1013.19 1013.65 1014.16 1014.69 1015.21
1026.06 1025.50 1024.89 1024.25 1023.63 1023.03 1022.46 1021.94 1021.45 1020.98 1020.53 1020.06 1019.57 1019.04 1018.47 1017.86 1017.24 1016.61 1016.01 1015.45 1014.96 1014.54 1014.20 1013.92 1013.70 1013.52 1013.34 1013.17 1012.97 1012.75 1012.52 1012.29 1012.08 1011.92 1011.85 1011.86 1011.99 1012.23 1012.58 1013.01 1013.51 1014.04 1014.58 1015.10
1025.02 1024.38 1023.74 1023.11 1022.53 1022.01 1021.54 1021.14 1020.78 1020.45 1020.12 1019.77 1019.39 1018.95 1018.47 1017.93 1017.36 1016.79 1016.23 1015.71 1015.24 1014.83 1014.49 1014.21 1013.96 1013.73 1013.49 1013.24 1012.97 1012.67 1012.36 1012.07 1011.81 1011.62 1011.53 1011.54 1011.68 1011.94 1012.31 1012.77 1013.29 1013.83 1014.38 1014.90
1024.00 1023.34 1022.70 1022.11 1021.59 1021.14 1020.77 1020.47 1020.22 1019.99 1019.76 1019.51 1019.20 1018.84 1018.41 1017.94 1017.42 1016.90 1016.38 1015.89 1015.45 1015.05 1014.70 1014.40 1014.11 1013.82 1013.52 1013.20 1012.85 1012.48 1012.11 1011.77 1011.47 1011.26 1011.16 1011.18 1011.33 1011.60 1011.99 1012.46 1012.98 1013.53 1014.09 1014.61
Thickness
5572 5566 5563 5566 5568 5569 5568 5565 5565 5573 5577 5572 5568 5569 5574 5576 5574 5573 5572 5571 5569 5568 5567 5566 5565 5564 5564 5565 5566 5567 5567 5568 5570 5571 5573 5574 5575 5576 5578 5580 5581 5583 5584 5586
5558 5555 5561 5564 5563 5561 5559 5553 5555 5561 5565 5561 5557 5560 5569 5570 5570 5569 5567 5565 5562 5559 5558 5557 5556 5554 5554 5555 5555 5556 5557 5558 5559 5561 5562 5564 5565 5566 5567 5569 5570 5572 5573 5575
5548 5551 5556 5554 5552 5550 5550 5546 5547 5546 5548 5551 5545 5546 5560 5566 5565 5564 5562 5559 5556 5552 5548 5547 5545 5544 5544 5544 5545 5546 5547 5548 5549 5550 5552 5554 5555 5556 5557 5558 5559 5561 5562 5564
5542 5546 5544 5542 5542 5540 5537 5544 5543 5538 5528 5528 5538 5527 5551 5555 5554 5554 5551 5548 5545 5543 5541 5538 5536 5535 5535 5535 5535 5536 5537 5538 5539 5540 5542 5543 5544 5545 5546 5547 5549 5551 5552 5554
5531 5534 5532 5530 5532 5533 5532 5535 5533 5530 5522 5518 5526 5520 5537 5546 5542 5543 5542 5540 5537 5535 5532 5530 5529 5527 5527 5526 5526 5526 5528 5529 5529 5530 5532 5533 5533 5535 5537 5538 5539 5540 5542 5543
5524 5526 5523 5522 5525 5527 5525 5522 5522 5520 5512 5504 5520 5515 5526 5534 5538 5536 5534 5532 5529 5527 5525 5523 5521 5519 5518 5517 5518 5518 5518 5519 5520 5520 5521 5522 5523 5525 5526 5527 5528 5530 5531 5533
5517 5518 5518 5516 5513 5515 5512 5504 5499 5498 5495 5504 5525 5518 5517 5530 5533 5530 5525 5522 5520 5518 5515 5513 5511 5509 5509 5509 5509 5509 5509 5510 5510 5511 5511 5512 5513 5514 5516 5517 5518 5519 5521 5522
5501 5503 5509 5508 5505 5501 5503 5501 5492 5491 5499 5509 5517 5511 5514 5524 5524 5522 5518 5514 5511 5509 5506 5505 5503 5501 5500 5500 5500 5500 5500 5501 5501 5502 5502 5502 5503 5504 5506 5507 5509 5510 5511 5513
5493 5495 5503 5502 5501 5499 5496 5494 5500 5490 5490 5488 5501 5508 5509 5515 5512 5509 5506 5504 5501 5500 5499 5497 5495 5493 5493 5492 5492 5492 5492 5492 5492 5492 5492 5492 5493 5494 5496 5498 5499 5500 5502 5503
5487 5479 5492 5493 5492 5491 5490 5490 5485 5481 5479 5486 5503 5506 5501 5501 5502 5500 5497 5494 5492 5491 5489 5488 5486 5485 5484 5483 5483 5483 5483 5483 5483 5483 5483 5484 5484 5485 5486 5488 5489 5490 5492 5493
5480 5469 5477 5481 5475 5478 5480 5479 5478 5478 5480 5479 5484 5492 5502 5498 5499 5495 5490 5487 5484 5481 5479 5478 5476 5475 5475 5474 5474 5473 5473 5473 5473 5474 5474 5475 5475 5476 5477 5478 5479 5481 5482 5483
5472 5465 5462 5472 5477 5477 5476 5477 5472 5465 5470 5476 5473 5477 5491 5490 5488 5487 5482 5479 5476 5473 5470 5468 5466 5466 5465 5464 5464 5463 5463 5464 5464 5465 5465 5466 5467 5468 5467 5468 5469 5471 5472 5473
5461 5452 5451 5460 5461 5461 5461 5465 5463 5457 5458 5463 5464 5470 5480 5479 5476 5474 5472 5469 5466 5463 5461 5459 5457 5456 5455 5454 5454 5454 5454 5454 5455 5456 5456 5457 5457 5457 5458 5458 5459 5460 5461 5463
5455 5440 5441 5449 5453 5449 5447 5451 5451 5446 5448 5454 5464 5464 5467 5464 5461 5460 5460 5458 5456 5454 5452 5450 5447 5446 5445 5444 5444 5444 5444 5445 5446 5447 5447 5447 5447 5447 5448 5448 5448 5449 5450 5451
5440 5433 5434 5439 5447 5443 5440 5441 5442 5440 5444 5446 5455 5455 5456 5453 5450 5450 5451 5449 5447 5445 5443 5440 5438 5437 5435 5434 5434 5434 5434 5435 5436 5436 5436 5437 5437 5437 5437 5438 5438 5438 5438 5439
5428 5425 5425 5428 5440 5436 5433 5435 5437 5437 5439 5442 5445 5445 5447 5446 5444 5442 5440 5439 5437 5436 5434 5432 5430 5428 5426 5425 5424 5424 5424 5424 5425 5425 5426 5426 5427 5427 5427 5427 5426 5426 5426 5427
5419 5415 5420 5426 5428 5425 5423 5428 5430 5432 5433 5433 5433 5435 5438 5436 5435 5434 5431 5429 5428 5426 5424 5422 5420 5419 5417 5416 5415 5414 5414 5414 5415 5415 5416 5416 5417 5417 5417 5417 5416 5416 5416 5416
5410 5410 5412 5413 5415 5413 5424 5427 5428 5426 5425 5424 5424 5425 5426 5426 5426 5425 5423 5419 5417 5416 5415 5413 5412 5410 5409 5407 5406 5405 5405 5405 5405 5405 5406 5407 5406 5406 5406 5406 5406 5405 5405 5405
5410 5406 5407 5407 5409 5417 5420 5420 5416 5414 5413 5415 5414 5416 5417 5418 5419 5416 5414 5411 5407 5406 5405 5404 5402 5401 5399 5398 5397 5396 5395 5395 5395 5396 5396 5397 5397 5396 5396 5396 5396 5395 5395 5394
5401 5398 5398 5402 5404 5407 5413 5408 5409 5408 5404 5406 5405 5404 5405 5405 5404 5404 5403 5401 5399 5398 5397 5395 5394 5392 5391 5390 5389 5387 5386 5386 5386 5387 5387 5387 5388 5388 5388 5387 5387 5386 5386 5385
5389 5391 5391 5396 5397 5401 5399 5399 5401 5398 5397 5392 5393 5392 5392 5391 5390 5392 5393 5391 5390 5390 5389 5388 5386 5385 5383 5382 5381 5379 5378 5377 5378 5379 5379 5379 5379 5379 5379 5379 5378 5378 5377 5377
5383 5384 5384 5388 5390 5393 5389 5390 5387 5384 5385 5385 5385 5384 5383 5382 5383 5384 5384 5383 5382 5381 5380 5380 5378 5376 5375 5374 5373 5372 5371 5370 5370 5370 5370 5371 5371 5372 5372 5371 5370 5370 5369 5369
5383 5382 5382 5381 5383 5383 5379 5378 5379 5378 5377 5378 5377 5376 5374 5374 5375 5375 5375 5374 5373 5372 5371 5371 5370 5368 5367 5366 5365 5364 5363 5363 5363 5362 5362 5362 5363 5363 5364 5363 5362 5362 5362 5361
5377 5378 5377 5374 5376 5378 5377 5375 5374 5372 5370 5370 5369 5367 5367 5366 5367 5366 5366 5365 5365 5364 5363 5362 5362 5360 5358 5358 5358 5357 5357 5356 5355 5354 5354 5355 5355 5355 5355 5355 5355 5355 5354 5353
5374 5369 5368 5366 5370 5371 5373 5370 5368 5366 5365 5363 5362 5361 5360 5359 5358 5358 5358 5357 5357 5356 5355 5354 5353 5352 5350 5350 5350 5349 5349 5348 5347 5347 5347 5347 5347 5347 5347 5347 5346 5347 5347 5346
5365 5361 5361 5365 5366 5365 5364 5365 5363 5360 5358 5356 5355 5354 5353 5352 5351 5351 5350 5350 5350 5349 5349 5347 5346 5345 5343 5343 5342 5342 5341 5341 5340 5340 5340 5339 5339 5339 5339 5338 5338 5339 5339 5340